User: anonymous   Login
Location: Fort Wayne
(41.1310°N, 85.1290°W)
Time: 05:10:00
(UTC-04:00)
Language:

CZ-2C R/B - Orbit

View from above orbital plane
View from above orbital plane
View from above satellite
View from above satellite

Ground track
Ground track

The orbit data is extracted from the following two-line orbital elements,

1 36089U 09061B   18115.96581243 +.00000116 +00000-0 +40088-4 0  9998
2 36089 098.0705 109.1507 0082480 161.6297 252.2176 14.49724499446938
Epoch (UTC): 25 April 2018 23:10:46
Eccentricity: 0.0082480
inclination: 98.0705°
perigee height: 668 km
apogee height: 785 km
right ascension of ascending node: 109.1507°
argument of perigee: 161.6297°
revolutions per day: 14.49724499
mean anomaly at epoch: 252.2176°
orbit number at epoch: 44693

The dashed part of the orbit path shows where the satellite is in the earth's shadow,  

DLR